Voltar ao catálogo

STARLINK-37536

AtivoComunicaçõesVLEO
NORAD 69508·PAYLOAD·🇺🇸 United States

Lançado Jun 12, 2026 de Cape Canaveral Space Force Station

Loading…

Próximas Passagens (próximas 24 horas)

TLE

AtualizadoSource: CelesTrak SupGP

Época: Sep 14, 2026, 23:34 UTC

1 69508C 26133A   26257.98243056  .00033323  00000+0  98438-3 0  2577
2 69508  53.1575 255.8384 0001279  94.5024 228.3291 15.34378604    13

Acompanhe STARLINK-37536 em tempo real com AllMySat

Download on the App Store